Time,TemperatureF,DewpointF,PressureIn,WindDirection,WindDirectionDegrees,WindSpeedMPH,WindSpeedGustMPH,Humidity,HourlyPrecipIn,Conditions,Clouds,dailyrainin,SoftwareType,DateUTC
2013-02-19 00:02:00,46.5,41.6,29.89,South,184,1.6,4.0,83,0.00,CLR,,0.00,WeatherDisplay:10.37,2013-02-19 08:02:00,
2013-02-19 00:07:00,46.4,41.8,29.88,SSW,195,1.5,5.0,84,0.00,CLR,,0.00,WeatherDisplay:10.37,2013-02-19 08:07:00,
2013-02-19 00:12:00,46.2,41.6,29.88,SSW,200,0.0,0.0,84,0.00,CLR,,0.00,WeatherDisplay:10.37,2013-02-19 08:12:00,
2013-02-19 00:17:00,46.2,41.6,29.88,SSW,207,3.1,6.0,84,0.00,CLR,,0.00,WeatherDisplay:10.37,2013-02-19 08:17:00,
2013-02-19 00:22:00,46.1,41.5,29.87,SSW,199,0.0,0.0,84,0.00,CLR,,0.00,WeatherDisplay:10.37,2013-02-19 08:22:00,
2013-02-19 00:27:00,46.1,41.8,29.87,SSW,211,0.0,1.0,85,0.00,CLR,,0.00,WeatherDisplay:10.37,2013-02-19 08:27:00,
2013-02-19 00:32:00,46.1,41.8,29.87,SSW,202,0.5,3.5,85,0.00,CLR,,0.00,WeatherDisplay:10.37,2013-02-19 08:32:00,
2013-02-19 00:37:00,46.1,41.8,29.88,SSW,202,0.4,1.2,85,0.00,CLR,,0.00,WeatherDisplay:10.37,2013-02-19 08:37:00,
2013-02-19 00:42:00,46.1,41.8,29.88,SSW,207,0.3,2.3,85,0.00,CLR,,0.00,WeatherDisplay:10.37,2013-02-19 08:42:00,
2013-02-19 00:47:00,46.1,41.8,29.88,SSW,212,0.5,3.5,85,0.00,CLR,,0.00,WeatherDisplay:10.37,2013-02-19 08:47:00,
2013-02-19 00:52:00,46.1,41.8,29.88,SSW,210,1.8,5.0,85,0.00,CLR,,0.00,WeatherDisplay:10.37,2013-02-19 08:52:00,
2013-02-19 00:57:00,46.1,41.8,29.88,SW,217,0.8,3.5,85,0.00,CLR,,0.00,WeatherDisplay:10.37,2013-02-19 08:57:00,
2013-02-19 01:02:00,46.1,41.8,29.88,SSW,205,0.5,5.0,85,0.00,CLR,,0.00,WeatherDisplay:10.37,2013-02-19 09:02:00,
2013-02-19 01:07:00,46.1,41.8,29.87,SSW,210,0.0,0.0,85,0.00,CLR,,0.00,WeatherDisplay:10.37,2013-02-19 09:07:00,
2013-02-19 01:12:00,46.1,41.8,29.88,SSW,210,0.2,2.3,85,0.00,CLR,,0.00,WeatherDisplay:10.37,2013-02-19 09:12:00,
2013-02-19 01:17:00,46.1,41.8,29.87,SSW,211,0.7,3.0,85,0.00,CLR,,0.00,WeatherDisplay:10.37,2013-02-19 09:17:00,
2013-02-19 01:22:00,46.1,41.8,29.87,SSW,211,0.0,1.2,85,0.00,CLR,,0.00,WeatherDisplay:10.37,2013-02-19 09:22:00,
2013-02-19 01:27:00,46.1,41.8,29.86,SSW,211,1.0,3.0,85,0.00,CLR,,0.00,WeatherDisplay:10.37,2013-02-19 09:27:00,
2013-02-19 01:32:00,46.1,41.8,29.86,SW,214,1.7,3.5,85,0.00,CLR,,0.00,WeatherDisplay:10.37,2013-02-19 09:32:00,
2013-02-19 01:37:00,46.1,41.8,29.86,SW,229,0.8,4.0,85,0.00,CLR,,0.00,WeatherDisplay:10.37,2013-02-19 09:37:00,
2013-02-19 01:42:00,46.1,42.1,29.86,SW,230,0.1,1.2,86,0.00,CLR,,0.00,WeatherDisplay:10.37,2013-02-19 09:42:00,
2013-02-19 01:47:00,46.1,41.8,29.86,WSW,246,0.0,1.2,85,0.00,CLR,,0.00,WeatherDisplay:10.37,2013-02-19 09:47:00,
2013-02-19 01:52:00,46.0,41.7,29.86,WSW,246,0.3,2.0,85,0.00,CLR,,0.00,WeatherDisplay:10.37,2013-02-19 09:52:00,
2013-02-19 01:57:00,45.8,41.9,29.86,WSW,251,0.6,3.5,86,0.00,CLR,,0.00,WeatherDisplay:10.37,2013-02-19 09:57:00,
2013-02-19 02:02:00,45.8,41.9,29.86,WSW,253,0.0,1.2,86,0.00,CLR,,0.00,WeatherDisplay:10.37,2013-02-19 10:02:00,
2013-02-19 02:07:00,45.8,41.9,29.86,WSW,253,0.0,1.2,86,0.00,CLR,,0.00,WeatherDisplay:10.37,2013-02-19 10:07:00,
2013-02-19 02:12:00,45.7,41.8,29.86,West,259,0.0,1.2,86,0.00,CLR,,0.00,WeatherDisplay:10.37,2013-02-19 10:12:00,
2013-02-19 02:17:00,45.5,41.6,29.86,SSW,205,0.0,2.3,86,0.00,CLR,,0.00,WeatherDisplay:10.37,2013-02-19 10:17:00,
2013-02-19 02:23:00,45.5,41.6,29.86,SW,214,3.3,5.0,86,0.00,CLR,,0.00,WeatherDisplay:10.37,2013-02-19 10:23:00,
2013-02-19 02:28:00,45.4,41.5,29.85,South,185,1.2,5.0,86,0.00,CLR,,0.00,WeatherDisplay:10.37,2013-02-19 10:28:00,
2013-02-19 02:33:00,45.2,41.0,29.85,SSW,209,3.7,6.0,85,0.00,CLR,,0.00,WeatherDisplay:10.37,2013-02-19 10:33:00,
2013-02-19 02:38:00,45.2,41.0,29.85,SW,219,0.0,3.5,85,0.00,CLR,,0.00,WeatherDisplay:10.37,2013-02-19 10:38:00,
2013-02-19 02:43:00,45.2,41.0,29.84,SSW,203,1.1,4.0,85,0.00,CLR,,0.00,WeatherDisplay:10.37,2013-02-19 10:43:00,
2013-02-19 02:48:00,45.2,40.7,29.84,South,179,2.6,6.0,84,0.00,CLR,,0.00,WeatherDisplay:10.37,2013-02-19 10:48:00,
2013-02-19 02:53:00,45.2,40.7,29.84,South,181,0.0,0.0,84,0.00,CLR,,0.00,WeatherDisplay:10.37,2013-02-19 10:53:00,
2013-02-19 02:58:00,45.4,40.8,29.84,SSW,195,0.3,4.6,84,0.00,CLR,,0.00,WeatherDisplay:10.37,2013-02-19 10:58:00,
2013-02-19 03:03:00,45.4,40.5,29.84,SW,236,0.0,1.2,83,0.00,CLR,,0.00,WeatherDisplay:10.37,2013-02-19 11:03:00,
2013-02-19 03:08:00,45.4,40.5,29.84,SW,236,0.0,3.5,83,0.00,CLR,,0.00,WeatherDisplay:10.37,2013-02-19 11:08:00,
2013-02-19 03:13:00,45.2,40.3,29.84,SSE,167,0.5,2.3,83,0.00,CLR,,0.00,WeatherDisplay:10.37,2013-02-19 11:13:00,
2013-02-19 03:18:00,45.2,40.0,29.84,SSW,203,0.0,0.0,82,0.00,CLR,,0.00,WeatherDisplay:10.37,2013-02-19 11:18:00,
2013-02-19 03:23:00,45.2,40.0,29.84,SSW,203,0.0,0.0,82,0.00,CLR,,0.00,WeatherDisplay:10.37,2013-02-19 11:23:00,
2013-02-19 03:28:00,45.2,40.0,29.84,South,184,0.4,3.5,82,0.00,CLR,,0.00,WeatherDisplay:10.37,2013-02-19 11:28:00,
2013-02-19 03:33:00,45.2,40.0,29.83,SSW,203,0.0,0.0,82,0.00,CLR,,0.00,WeatherDisplay:10.37,2013-02-19 11:33:00,
2013-02-19 03:38:00,45.2,39.7,29.83,SSW,203,0.0,0.0,81,0.00,CLR,,0.00,WeatherDisplay:10.37,2013-02-19 11:38:00,
2013-02-19 03:43:00,45.2,39.7,29.83,SSW,203,0.5,2.3,81,0.00,CLR,,0.00,WeatherDisplay:10.37,2013-02-19 11:43:00,
2013-02-19 03:48:00,45.2,39.7,29.83,SSW,205,0.0,1.2,81,0.00,CLR,,0.00,WeatherDisplay:10.37,2013-02-19 11:48:00,
2013-02-19 03:53:00,45.2,39.4,29.83,SW,219,1.2,5.0,80,0.00,CLR,,0.00,WeatherDisplay:10.37,2013-02-19 11:53:00,
2013-02-19 03:58:00,45.1,39.0,29.83,SW,214,3.2,6.0,79,0.00,CLR,,0.00,WeatherDisplay:10.37,2013-02-19 11:58:00,
2013-02-19 04:03:00,45.1,39.0,29.83,SSW,203,0.4,2.3,79,0.00,CLR,,0.00,WeatherDisplay:10.37,2013-02-19 12:03:00,
2013-02-19 04:08:00,45.1,39.0,29.84,SSW,212,1.3,3.5,79,0.00,CLR,,0.00,WeatherDisplay:10.37,2013-02-19 12:08:00,
2013-02-19 04:13:00,45.1,39.0,29.84,SW,232,2.1,4.0,79,0.00,CLR,,0.00,WeatherDisplay:10.37,2013-02-19 12:13:00,
2013-02-19 04:18:00,45.1,39.0,29.84,SW,217,0.1,3.5,79,0.00,CLR,,0.00,WeatherDisplay:10.37,2013-02-19 12:18:00,
2013-02-19 04:23:00,45.1,39.0,29.84,SW,223,0.0,1.2,79,0.00,CLR,,0.00,WeatherDisplay:10.37,2013-02-19 12:23:00,
2013-02-19 04:28:00,45.1,39.0,29.84,SSW,205,1.2,4.0,79,0.00,CLR,,0.00,WeatherDisplay:10.37,2013-02-19 12:28:00,
2013-02-19 04:33:00,44.9,38.8,29.84,SW,223,0.4,3.5,79,0.00,CLR,,0.00,WeatherDisplay:10.37,2013-02-19 12:33:00,
2013-02-19 04:38:00,44.9,38.8,29.84,SW,219,0.6,4.0,79,0.00,CLR,,0.00,WeatherDisplay:10.37,2013-02-19 12:38:00,
2013-02-19 04:43:00,44.9,38.5,29.85,South,186,1.4,4.6,78,0.00,CLR,,0.00,WeatherDisplay:10.37,2013-02-19 12:43:00,
2013-02-19 04:48:00,44.9,38.5,29.85,SW,214,2.6,6.0,78,0.00,CLR,,0.00,WeatherDisplay:10.37,2013-02-19 12:48:00,
2013-02-19 04:53:00,44.9,38.5,29.84,SW,221,1.5,5.8,78,0.00,CLR,,0.00,WeatherDisplay:10.37,2013-02-19 12:53:00,
2013-02-19 04:58:00,44.8,37.7,29.85,SW,231,1.8,4.0,76,0.00,CLR,,0.00,WeatherDisplay:10.37,2013-02-19 12:58:00,
2013-02-19 05:04:00,44.9,37.8,29.85,SW,224,0.0,3.5,76,0.00,CLR,,0.00,WeatherDisplay:10.37,2013-02-19 13:04:00,
2013-02-19 05:09:00,44.9,37.8,29.86,SW,217,1.2,5.0,76,0.00,CLR,,0.00,WeatherDisplay:10.37,2013-02-19 13:09:00,
2013-02-19 05:14:00,44.8,37.4,29.86,SSW,210,2.0,6.0,75,0.00,CLR,,0.00,WeatherDisplay:10.37,2013-02-19 13:14:00,
2013-02-19 05:19:00,44.8,36.7,29.86,SW,217,3.2,7.0,73,0.00,CLR,,0.00,WeatherDisplay:10.37,2013-02-19 13:19:00,
2013-02-19 05:24:00,44.9,36.4,29.86,SSW,210,2.0,11.5,72,0.00,CLR,,0.00,WeatherDisplay:10.37,2013-02-19 13:24:00,
2013-02-19 05:29:00,44.9,36.4,29.87,SW,228,3.4,6.0,72,0.00,CLR,,0.00,WeatherDisplay:10.37,2013-02-19 13:29:00,
2013-02-19 05:34:00,44.9,36.1,29.87,SSW,210,2.7,10.4,71,0.00,CLR,,0.00,WeatherDisplay:10.37,2013-02-19 13:34:00,
2013-02-19 05:39:00,45.1,36.3,29.87,SSW,213,3.6,7.0,71,0.00,CLR,,0.00,WeatherDisplay:10.37,2013-02-19 13:39:00,
2013-02-19 05:44:00,45.1,36.3,29.87,SW,225,0.7,5.0,71,0.00,CLR,,0.00,WeatherDisplay:10.37,2013-02-19 13:44:00,
2013-02-19 05:49:00,44.9,36.1,29.87,SW,217,2.3,5.8,71,0.00,CLR,,0.00,WeatherDisplay:10.37,2013-02-19 13:49:00,
2013-02-19 05:54:00,44.9,36.4,29.87,WSW,252,1.8,7.0,72,0.00,CLR,,0.00,WeatherDisplay:10.37,2013-02-19 13:54:00,
2013-02-19 05:59:00,44.9,36.4,29.87,SSW,213,2.5,4.0,72,0.00,CLR,,0.00,WeatherDisplay:10.37,2013-02-19 13:59:00,
2013-02-19 06:04:00,44.8,36.3,29.88,SSW,213,1.9,4.0,72,0.00,CLR,,0.00,WeatherDisplay:10.37,2013-02-19 14:04:00,
2013-02-19 06:09:00,44.9,35.7,29.89,SW,233,0.1,1.2,70,0.00,CLR,,0.00,WeatherDisplay:10.37,2013-02-19 14:09:00,
2013-02-19 06:14:00,44.9,35.7,29.88,SSW,195,1.3,5.0,70,0.00,CLR,,0.00,WeatherDisplay:10.37,2013-02-19 14:14:00,
2013-02-19 06:19:00,45.1,35.9,29.88,SSW,198,0.0,0.0,70,0.00,CLR,,0.00,WeatherDisplay:10.37,2013-02-19 14:19:00,
2013-02-19 06:24:00,45.1,36.3,29.88,SSW,198,0.0,0.0,71,0.00,CLR,,0.00,WeatherDisplay:10.37,2013-02-19 14:24:00,
2013-02-19 06:29:00,45.1,36.3,29.88,SSW,198,0.0,0.0,71,0.00,CLR,,0.00,WeatherDisplay:10.37,2013-02-19 14:29:00,
2013-02-19 06:34:00,44.9,36.1,29.88,SSW,198,0.0,0.0,71,0.00,CLR,,0.00,WeatherDisplay:10.37,2013-02-19 14:34:00,
2013-02-19 06:39:00,44.9,36.1,29.87,SSW,198,0.0,1.2,71,0.00,CLR,,0.00,WeatherDisplay:10.37,2013-02-19 14:39:00,
2013-02-19 06:44:00,45.1,35.9,29.87,SSW,198,0.0,0.0,70,0.00,CLR,,0.00,WeatherDisplay:10.37,2013-02-19 14:44:00,
2013-02-19 06:49:00,45.2,35.6,29.87,SSW,195,0.0,1.0,69,0.00,CLR,,0.00,WeatherDisplay:10.37,2013-02-19 14:49:00,
2013-02-19 06:54:00,45.2,35.6,29.87,SSE,163,0.2,3.0,69,0.00,CLR,,0.00,WeatherDisplay:10.37,2013-02-19 14:54:00,
2013-02-19 06:59:00,45.4,35.5,29.87,South,174,1.5,4.0,68,0.00,CLR,,0.00,WeatherDisplay:10.37,2013-02-19 14:59:00,
2013-02-19 07:04:00,45.4,35.8,29.87,SSE,155,0.0,2.3,69,0.00,CLR,,0.00,WeatherDisplay:10.37,2013-02-19 15:04:00,
2013-02-19 07:09:00,45.4,35.8,29.88,SSE,155,0.0,1.0,69,0.00,CLR,,0.00,WeatherDisplay:10.37,2013-02-19 15:09:00,
2013-02-19 07:14:00,45.4,35.5,29.88,SSE,155,0.0,0.0,68,0.00,CLR,,0.00,WeatherDisplay:10.37,2013-02-19 15:14:00,
2013-02-19 07:19:00,45.5,35.5,29.87,SSE,156,0.0,1.2,68,0.00,CLR,,0.00,WeatherDisplay:10.37,2013-02-19 15:19:00,
2013-02-19 07:24:00,45.5,35.2,29.87,SSE,156,0.0,0.0,67,0.00,CLR,,0.00,WeatherDisplay:10.37,2013-02-19 15:24:00,
2013-02-19 07:29:00,45.7,35.4,29.87,SSE,156,0.0,0.0,67,0.00,CLR,,0.00,WeatherDisplay:10.37,2013-02-19 15:29:00,
2013-02-19 07:34:00,45.8,35.1,29.87,SSE,157,0.0,0.0,66,0.00,CLR,,0.00,WeatherDisplay:10.37,2013-02-19 15:34:00,
2013-02-19 07:39:00,45.8,35.1,29.87,SSE,157,0.1,2.3,66,0.00,CLR,,0.00,WeatherDisplay:10.37,2013-02-19 15:39:00,
2013-02-19 07:44:00,46.0,35.3,29.87,SSE,157,0.5,3.5,66,0.00,CLR,,0.00,WeatherDisplay:10.37,2013-02-19 15:44:00,
2013-02-19 07:49:00,46.0,35.3,29.87,SSE,168,1.2,5.0,66,0.00,CLR,,0.00,WeatherDisplay:10.37,2013-02-19 15:49:00,
2013-02-19 07:54:00,46.0,34.9,29.87,South,169,0.5,3.5,65,0.00,CLR,,0.00,WeatherDisplay:10.37,2013-02-19 15:54:00,
2013-02-19 07:59:00,46.1,35.0,29.87,South,169,0.0,0.0,65,0.00,CLR,,0.00,WeatherDisplay:10.37,2013-02-19 15:59:00,
2013-02-19 08:04:00,46.2,35.1,29.87,SSE,159,0.0,1.2,65,0.00,CLR,,0.00,WeatherDisplay:10.37,2013-02-19 16:04:00,
2013-02-19 08:09:00,46.4,35.3,29.86,SSE,167,0.0,1.0,65,0.00,CLR,,0.00,WeatherDisplay:10.37,2013-02-19 16:09:00,
2013-02-19 08:14:00,46.7,35.6,29.86,SSE,166,0.1,2.0,65,0.00,CLR,,0.00,WeatherDisplay:10.37,2013-02-19 16:14:00,
2013-02-19 08:19:00,47.0,36.2,29.86,SSE,168,0.5,2.0,66,0.00,CLR,,0.00,WeatherDisplay:10.37,2013-02-19 16:19:00,
2013-02-19 08:24:00,47.1,35.9,29.86,South,173,0.1,3.5,65,0.00,CLR,,0.00,WeatherDisplay:10.37,2013-02-19 16:24:00,
2013-02-19 08:29:00,47.3,35.7,29.86,SSE,163,1.9,3.5,64,0.00,CLR,,0.00,WeatherDisplay:10.37,2013-02-19 16:29:00,
2013-02-19 08:34:00,47.4,35.8,29.86,SSE,160,0.0,1.2,64,0.00,CLR,,0.00,WeatherDisplay:10.37,2013-02-19 16:34:00,
2013-02-19 08:39:00,47.7,36.1,29.85,SSW,199,1.3,6.0,64,0.00,CLR,,0.00,WeatherDisplay:10.37,2013-02-19 16:39:00,
2013-02-19 08:44:00,47.7,35.3,29.85,SSE,159,0.2,3.5,62,0.00,CLR,,0.00,WeatherDisplay:10.37,2013-02-19 16:44:00,
2013-02-19 08:49:00,47.6,35.2,29.85,SSE,150,2.4,5.0,62,0.00,CLR,,0.00,WeatherDisplay:10.37,2013-02-19 16:49:00,
2013-02-19 08:54:00,47.6,35.6,29.86,SE,143,0.3,1.2,63,0.00,CLR,,0.00,WeatherDisplay:10.37,2013-02-19 16:54:00,
2013-02-19 08:59:00,47.4,35.4,29.86,SSE,158,1.0,3.5,63,0.00,CLR,,0.00,WeatherDisplay:10.37,2013-02-19 16:59:00,
2013-02-19 09:04:00,47.4,35.8,29.86,SSE,161,0.6,5.0,64,0.00,CLR,,0.00,WeatherDisplay:10.37,2013-02-19 17:04:00,
2013-02-19 09:09:00,47.7,35.7,29.86,SSW,211,0.6,2.3,63,0.00,CLR,,0.00,WeatherDisplay:10.37,2013-02-19 17:09:00,
2013-02-19 09:14:00,47.9,35.9,29.86,SW,221,0.5,5.0,63,0.00,CLR,,0.00,WeatherDisplay:10.37,2013-02-19 17:14:00,
2013-02-19 09:19:00,48.0,35.6,29.86,SSW,212,0.2,1.2,62,0.00,CLR,,0.00,WeatherDisplay:10.37,2013-02-19 17:19:00,
2013-02-19 09:24:00,48.2,36.2,29.86,SSW,192,0.7,3.5,63,0.00,CLR,,0.00,WeatherDisplay:10.37,2013-02-19 17:24:00,
2013-02-19 09:29:00,48.3,35.9,29.86,SSW,204,0.9,4.6,62,0.00,CLR,,0.00,WeatherDisplay:10.37,2013-02-19 17:29:00,
2013-02-19 09:34:00,48.3,36.3,29.86,SSW,193,0.5,3.0,63,0.00,CLR,,0.00,WeatherDisplay:10.37,2013-02-19 17:34:00,
2013-02-19 09:39:00,48.3,35.9,29.86,SE,140,0.8,3.5,62,0.00,CLR,,0.00,WeatherDisplay:10.37,2013-02-19 17:39:00,
2013-02-19 09:44:00,48.5,36.5,29.86,South,174,0.1,1.2,63,0.00,CLR,,0.00,WeatherDisplay:10.37,2013-02-19 17:44:00,
2013-02-19 09:49:00,48.5,36.5,29.86,South,188,1.1,2.3,63,0.00,CLR,,0.00,WeatherDisplay:10.37,2013-02-19 17:49:00,
2013-02-19 09:54:00,48.6,36.6,29.86,SW,233,1.9,5.0,63,0.00,CLR,,0.00,WeatherDisplay:10.37,2013-02-19 17:54:00,
2013-02-19 09:59:00,48.8,36.4,29.86,SW,232,0.3,1.2,62,0.00,CLR,,0.00,WeatherDisplay:10.37,2013-02-19 17:59:00,
2013-02-19 10:04:00,48.8,36.4,29.86,SSW,207,0.0,0.0,62,0.00,CLR,,0.00,WeatherDisplay:10.37,2013-02-19 18:04:00,
2013-02-19 10:09:00,48.8,36.4,29.86,WSW,249,0.5,5.0,62,0.00,CLR,,0.00,WeatherDisplay:10.37,2013-02-19 18:09:00,
2013-02-19 10:14:00,48.9,37.3,29.86,SSW,212,0.2,1.2,64,0.00,CLR,,0.00,WeatherDisplay:10.37,2013-02-19 18:14:00,
2013-02-19 10:19:00,49.2,37.1,29.86,SW,217,0.0,3.5,63,0.00,CLR,,0.00,WeatherDisplay:10.37,2013-02-19 18:19:00,
2013-02-19 10:24:00,49.4,37.7,29.85,SSE,162,0.0,0.0,64,0.00,CLR,,0.00,WeatherDisplay:10.37,2013-02-19 18:24:00,
2013-02-19 10:29:00,49.6,37.5,29.86,SW,224,0.7,3.5,63,0.00,CLR,,0.00,WeatherDisplay:10.37,2013-02-19 18:29:00,
2013-02-19 10:34:00,49.8,38.5,29.86,SW,218,0.3,1.2,65,0.00,CLR,,0.00,WeatherDisplay:10.37,2013-02-19 18:34:00,
2013-02-19 10:39:00,49.9,38.2,29.85,SW,219,0.0,0.0,64,0.00,CLR,,0.00,WeatherDisplay:10.37,2013-02-19 18:39:00,
2013-02-19 10:44:00,49.8,37.7,29.85,SW,214,0.3,2.0,63,0.00,CLR,,0.00,WeatherDisplay:10.37,2013-02-19 18:44:00,
2013-02-19 10:49:00,49.6,37.5,29.85,SSE,167,0.0,3.5,63,0.00,CLR,,0.00,WeatherDisplay:10.37,2013-02-19 18:49:00,
2013-02-19 10:54:00,49.8,38.1,29.85,SSW,192,0.1,2.3,64,0.00,CLR,,0.00,WeatherDisplay:10.37,2013-02-19 18:54:00,
2013-02-19 10:59:00,49.8,38.1,29.85,SSW,192,0.3,1.2,64,0.00,CLR,,0.00,WeatherDisplay:10.37,2013-02-19 18:59:00,
2013-02-19 11:04:00,49.8,38.1,29.85,SSW,195,0.4,2.3,64,0.00,CLR,,0.00,WeatherDisplay:10.37,2013-02-19 19:04:00,
2013-02-19 11:09:00,49.6,38.3,29.84,SSW,212,0.0,1.2,65,0.00,CLR,,0.00,WeatherDisplay:10.37,2013-02-19 19:09:00,
2013-02-19 11:14:00,49.5,38.2,29.84,West,266,0.2,2.3,65,0.00,CLR,,0.00,WeatherDisplay:10.37,2013-02-19 19:14:00,
2013-02-19 11:19:00,49.6,38.3,29.84,WSW,254,0.6,2.3,65,0.00,CLR,,0.00,WeatherDisplay:10.37,2013-02-19 19:19:00,
2013-02-19 11:24:00,49.4,37.3,29.84,SW,218,3.2,9.2,63,0.00,CLR,,0.00,WeatherDisplay:10.37,2013-02-19 19:24:00,
2013-02-19 11:29:00,48.9,38.8,29.83,West,264,0.6,6.9,68,0.00,CLR,,0.00,WeatherDisplay:10.37,2013-02-19 19:29:00,
2013-02-19 11:34:00,49.1,39.4,29.82,SW,220,0.7,5.0,69,0.00,CLR,,0.00,WeatherDisplay:10.37,2013-02-19 19:34:00,
2013-02-19 11:39:00,49.1,38.6,29.82,SW,214,0.7,3.5,67,0.00,CLR,,0.00,WeatherDisplay:10.37,2013-02-19 19:39:00,
2013-02-19 11:44:00,49.1,39.4,29.82,SW,234,0.3,2.3,69,0.00,CLR,,0.00,WeatherDisplay:10.37,2013-02-19 19:44:00,
2013-02-19 11:49:00,48.9,38.8,29.83,SW,228,2.3,5.0,68,0.00,CLR,,0.00,WeatherDisplay:10.37,2013-02-19 19:49:00,
2013-02-19 11:54:00,48.3,38.6,29.83,SW,236,1.3,6.9,69,0.00,CLR,,0.00,WeatherDisplay:10.37,2013-02-19 19:54:00,
2013-02-19 11:59:00,48.2,38.9,29.82,SW,232,2.4,5.8,70,0.00,CLR,,0.00,WeatherDisplay:10.37,2013-02-19 19:59:00,
2013-02-19 12:04:00,48.3,39.3,29.82,SSW,212,2.3,6.0,71,0.00,CLR,,0.00,WeatherDisplay:10.37,2013-02-19 20:04:00,
2013-02-19 12:09:00,48.5,39.9,29.82,SW,221,0.2,2.0,72,0.00,CLR,,0.00,WeatherDisplay:10.37,2013-02-19 20:09:00,
2013-02-19 12:14:00,48.8,40.5,29.82,SSW,213,3.7,7.0,73,0.00,CLR,,0.00,WeatherDisplay:10.37,2013-02-19 20:14:00,
2013-02-19 12:19:00,48.8,40.5,29.82,SW,219,0.8,2.3,73,0.00,CLR,,0.00,WeatherDisplay:10.37,2013-02-19 20:19:00,
2013-02-19 12:24:00,48.9,41.0,29.82,SSW,203,0.1,1.0,74,0.00,CLR,,0.00,WeatherDisplay:10.37,2013-02-19 20:24:00,
2013-02-19 12:29:00,48.8,40.2,29.81,SSW,203,1.1,4.0,72,0.00,CLR,,0.00,WeatherDisplay:10.37,2013-02-19 20:29:00,
2013-02-19 12:34:00,48.8,40.9,29.81,SSW,202,0.0,0.0,74,0.00,CLR,,0.00,WeatherDisplay:10.37,2013-02-19 20:34:00,
2013-02-19 12:39:00,48.9,41.3,29.81,SSW,203,0.3,3.5,75,0.01,RA,,0.01,WeatherDisplay:10.37,2013-02-19 20:39:00,
2013-02-19 12:44:00,48.9,41.3,29.81,SSW,204,2.2,5.0,75,0.01,RA,,0.01,WeatherDisplay:10.37,2013-02-19 20:44:00,
2013-02-19 12:49:00,48.8,40.2,29.81,SSW,212,0.4,3.5,72,0.01,RA,,0.01,WeatherDisplay:10.37,2013-02-19 20:49:00,
2013-02-19 12:54:00,48.8,40.2,29.81,SSW,205,0.5,2.0,72,0.01,CLR,,0.01,WeatherDisplay:10.37,2013-02-19 20:54:00,
2013-02-19 12:59:00,48.8,40.5,29.80,West,276,2.2,5.0,73,0.01,CLR,,0.01,WeatherDisplay:10.37,2013-02-19 20:59:00,
2013-02-19 13:04:00,48.8,41.2,29.79,SSW,203,3.9,7.0,75,0.01,CLR,,0.01,WeatherDisplay:10.37,2013-02-19 21:04:00,
2013-02-19 13:09:00,48.8,41.2,29.79,SW,219,1.9,7.0,75,0.01,CLR,,0.01,WeatherDisplay:10.37,2013-02-19 21:09:00,
2013-02-19 13:14:00,48.5,40.2,29.79,SW,220,0.5,2.3,73,0.01,CLR,,0.01,WeatherDisplay:10.37,2013-02-19 21:14:00,
2013-02-19 13:19:00,48.5,40.9,29.79,SSW,211,0.6,3.5,75,0.01,CLR,,0.01,WeatherDisplay:10.37,2013-02-19 21:19:00,
2013-02-19 13:24:00,48.6,41.4,29.78,SSW,211,0.0,1.2,76,0.01,CLR,,0.01,WeatherDisplay:10.37,2013-02-19 21:24:00,
2013-02-19 13:29:00,48.6,40.7,29.78,SSW,203,0.5,1.2,74,0.01,CLR,,0.01,WeatherDisplay:10.37,2013-02-19 21:29:00,
2013-02-19 13:34:00,48.3,40.0,29.78,SW,215,2.5,5.0,73,0.01,CLR,,0.01,WeatherDisplay:10.37,2013-02-19 21:34:00,
2013-02-19 13:39:00,48.3,40.7,29.78,SW,215,0.0,0.0,75,0.01,CLR,,0.01,WeatherDisplay:10.37,2013-02-19 21:39:00,
2013-02-19 13:44:00,48.3,41.1,29.77,SSW,212,1.7,4.0,76,0.00,CLR,,0.01,WeatherDisplay:10.37,2013-02-19 21:44:00,
2013-02-19 13:49:00,48.3,40.7,29.77,SSW,197,3.6,7.0,75,0.01,RA,,0.02,WeatherDisplay:10.37,2013-02-19 21:49:00,
2013-02-19 13:54:00,48.2,41.0,29.77,SW,220,0.6,5.0,76,0.01,RA,,0.02,WeatherDisplay:10.37,2013-02-19 21:54:00,
2013-02-19 13:59:00,48.3,41.1,29.77,South,182,0.4,3.0,76,0.01,CLR,,0.02,WeatherDisplay:10.37,2013-02-19 21:59:00,
2013-02-19 14:04:00,48.5,42.0,29.77,SSW,207,2.8,6.0,78,0.01,CLR,,0.02,WeatherDisplay:10.37,2013-02-19 22:04:00,
2013-02-19 14:09:00,48.3,41.8,29.77,SW,219,0.7,4.6,78,0.01,CLR,,0.02,WeatherDisplay:10.37,2013-02-19 22:09:00,
2013-02-19 14:14:00,48.2,41.7,29.76,SSW,200,0.4,3.5,78,0.01,CLR,,0.02,WeatherDisplay:10.37,2013-02-19 22:14:00,
2013-02-19 14:19:00,47.9,41.4,29.76,SSE,167,1.2,5.0,78,0.01,CLR,,0.02,WeatherDisplay:10.37,2013-02-19 22:19:00,
2013-02-19 14:24:00,47.9,41.7,29.76,South,191,0.3,2.0,79,0.01,CLR,,0.02,WeatherDisplay:10.37,2013-02-19 22:24:00,
2013-02-19 14:29:00,47.9,42.0,29.76,SSE,155,1.3,10.0,80,0.01,CLR,,0.02,WeatherDisplay:10.37,2013-02-19 22:29:00,
2013-02-19 14:34:00,47.6,40.7,29.76,South,183,2.9,9.0,77,0.01,CLR,,0.02,WeatherDisplay:10.37,2013-02-19 22:34:00,
2013-02-19 14:39:00,47.6,41.1,29.76,South,183,0.2,2.0,78,0.01,CLR,,0.02,WeatherDisplay:10.37,2013-02-19 22:39:00,
2013-02-19 14:44:00,47.4,40.9,29.75,SSE,162,1.7,6.0,78,0.01,CLR,,0.02,WeatherDisplay:10.37,2013-02-19 22:44:00,
2013-02-19 14:49:00,47.4,41.2,29.75,SE,136,0.2,3.5,79,0.00,CLR,,0.02,WeatherDisplay:10.37,2013-02-19 22:49:00,
2013-02-19 14:54:00,47.3,41.1,29.75,South,183,0.3,2.0,79,0.00,CLR,,0.02,WeatherDisplay:10.37,2013-02-19 22:54:00,
2013-02-19 14:59:00,47.3,41.4,29.75,South,180,0.7,3.5,80,0.00,CLR,,0.02,WeatherDisplay:10.37,2013-02-19 22:59:00,
2013-02-19 15:04:00,47.3,41.8,29.75,South,184,0.5,3.5,81,0.00,CLR,,0.02,WeatherDisplay:10.37,2013-02-19 23:04:00,
2013-02-19 15:09:00,47.3,42.1,29.75,SSW,200,1.4,6.0,82,0.00,CLR,,0.02,WeatherDisplay:10.37,2013-02-19 23:09:00,
2013-02-19 15:14:00,47.3,42.1,29.75,SSW,198,1.8,6.0,82,0.00,CLR,,0.02,WeatherDisplay:10.37,2013-02-19 23:14:00,
2013-02-19 15:19:00,47.0,41.8,29.75,SSW,207,1.9,5.8,82,0.00,CLR,,0.02,WeatherDisplay:10.37,2013-02-19 23:19:00,
2013-02-19 15:24:00,47.1,42.2,29.75,SSW,213,0.4,2.3,83,0.00,CLR,,0.02,WeatherDisplay:10.37,2013-02-19 23:24:00,
2013-02-19 15:29:00,47.4,42.5,29.75,SW,214,0.6,3.5,83,0.00,CLR,,0.02,WeatherDisplay:10.37,2013-02-19 23:29:00,
2013-02-19 15:34:00,47.6,42.4,29.74,SSE,155,0.0,1.2,82,0.00,CLR,,0.02,WeatherDisplay:10.37,2013-02-19 23:34:00,
2013-02-19 15:39:00,47.7,42.5,29.74,SSW,198,4.6,11.0,82,0.00,CLR,,0.02,WeatherDisplay:10.37,2013-02-19 23:39:00,
2013-02-19 15:44:00,47.7,42.2,29.74,SW,235,1.3,6.9,81,0.00,CLR,,0.02,WeatherDisplay:10.37,2013-02-19 23:44:00,
2013-02-19 15:49:00,47.7,41.8,29.74,WSW,246,0.4,4.6,80,0.00,CLR,,0.02,WeatherDisplay:10.37,2013-02-19 23:49:00,
2013-02-19 15:54:00,47.9,41.7,29.73,SW,224,0.7,5.0,79,0.00,CLR,,0.02,WeatherDisplay:10.37,2013-02-19 23:54:00,
2013-02-19 15:59:00,47.9,41.7,29.73,SW,231,0.3,2.3,79,0.00,CLR,,0.02,WeatherDisplay:10.37,2013-02-19 23:59:00,
2013-02-19 16:04:00,47.9,41.4,29.73,West,281,0.3,5.8,78,0.00,CLR,,0.02,WeatherDisplay:10.37,2013-02-20 00:04:00,
2013-02-19 16:09:00,47.7,41.2,29.73,SW,232,2.3,6.9,78,0.00,CLR,,0.02,WeatherDisplay:10.37,2013-02-20 00:09:00,
2013-02-19 16:14:00,47.6,41.1,29.73,SW,232,1.7,5.0,78,0.00,CLR,,0.02,WeatherDisplay:10.37,2013-02-20 00:14:00,
2013-02-19 16:19:00,47.6,41.4,29.73,SW,230,1.1,5.0,79,0.00,CLR,,0.02,WeatherDisplay:10.37,2013-02-20 00:19:00,
2013-02-19 16:24:00,47.4,41.2,29.73,South,176,1.3,5.0,79,0.00,CLR,,0.02,WeatherDisplay:10.37,2013-02-20 00:24:00,
2013-02-19 16:29:00,47.3,41.1,29.72,SW,229,0.3,3.5,79,0.00,CLR,,0.02,WeatherDisplay:10.37,2013-02-20 00:29:00,
2013-02-19 16:34:00,47.3,41.1,29.71,SSW,205,0.7,3.5,79,0.00,CLR,,0.02,WeatherDisplay:10.37,2013-02-20 00:34:00,
2013-02-19 16:39:00,47.3,41.1,29.71,SE,138,0.3,2.3,79,0.00,CLR,,0.02,WeatherDisplay:10.37,2013-02-20 00:39:00,
2013-02-19 16:44:00,47.1,40.9,29.71,South,171,0.5,3.0,79,0.00,CLR,,0.02,WeatherDisplay:10.37,2013-02-20 00:44:00,
2013-02-19 16:49:00,47.0,40.8,29.71,SSE,158,0.2,3.5,79,0.00,CLR,,0.02,WeatherDisplay:10.37,2013-02-20 00:49:00,
2013-02-19 16:54:00,47.0,41.1,29.71,SE,145,0.3,1.2,80,0.00,CLR,,0.02,WeatherDisplay:10.37,2013-02-20 00:54:00,
2013-02-19 16:59:00,46.8,41.0,29.71,SW,219,1.1,5.8,80,0.00,CLR,,0.02,WeatherDisplay:10.37,2013-02-20 00:59:00,
2013-02-19 17:04:00,46.5,40.7,29.71,SSW,211,2.1,6.0,80,0.01,RA,,0.03,WeatherDisplay:10.37,2013-02-20 01:04:00,
2013-02-19 17:09:00,46.2,40.7,29.72,SW,231,0.2,1.2,81,0.02,RA,,0.04,WeatherDisplay:10.37,2013-02-20 01:09:00,
2013-02-19 17:14:00,46.0,40.8,29.71,SSW,203,0.5,3.5,82,0.02,RA,,0.04,WeatherDisplay:10.37,2013-02-20 01:14:00,
2013-02-19 17:19:00,45.8,40.6,29.71,South,182,1.6,5.0,82,0.03,RA,,0.05,WeatherDisplay:10.37,2013-02-20 01:19:00,
2013-02-19 17:24:00,45.5,40.3,29.71,SW,220,0.8,5.8,82,0.03,RA,,0.05,WeatherDisplay:10.37,2013-02-20 01:24:00,
2013-02-19 17:29:00,45.4,40.2,29.71,SW,218,1.2,4.0,82,0.03,CLR,,0.05,WeatherDisplay:10.37,2013-02-20 01:29:00,
2013-02-19 17:34:00,45.2,40.0,29.71,SSW,193,1.9,4.0,82,0.03,CLR,,0.05,WeatherDisplay:10.37,2013-02-20 01:34:00,
2013-02-19 17:39:00,45.4,40.2,29.71,SSW,201,3.6,9.0,82,0.03,CLR,,0.05,WeatherDisplay:10.37,2013-02-20 01:39:00,
2013-02-19 17:44:00,45.4,40.2,29.71,South,176,0.1,2.3,82,0.03,CLR,,0.05,WeatherDisplay:10.37,2013-02-20 01:44:00,
2013-02-19 17:49:00,45.4,40.2,29.71,WSW,245,0.0,0.0,82,0.03,CLR,,0.05,WeatherDisplay:10.37,2013-02-20 01:49:00,
2013-02-19 17:54:00,45.4,40.2,29.71,SSW,207,0.6,2.3,82,0.03,CLR,,0.05,WeatherDisplay:10.37,2013-02-20 01:54:00,
2013-02-19 17:59:00,45.4,40.2,29.71,SSW,198,0.1,3.5,82,0.03,CLR,,0.05,WeatherDisplay:10.37,2013-02-20 01:59:00,
2013-02-19 18:04:00,45.4,40.2,29.71,SSW,198,0.1,2.3,82,0.02,CLR,,0.05,WeatherDisplay:10.37,2013-02-20 02:04:00,
2013-02-19 18:09:00,45.4,40.2,29.71,SSW,198,0.1,1.2,82,0.01,CLR,,0.05,WeatherDisplay:10.37,2013-02-20 02:09:00,
2013-02-19 18:14:00,45.2,40.0,29.71,SSW,206,0.7,3.5,82,0.01,CLR,,0.05,WeatherDisplay:10.37,2013-02-20 02:14:00,
2013-02-19 18:19:00,45.2,39.7,29.70,SW,214,0.2,3.5,81,0.00,CLR,,0.05,WeatherDisplay:10.37,2013-02-20 02:19:00,
2013-02-19 18:24:00,45.2,39.7,29.70,SW,223,0.4,3.5,81,0.00,CLR,,0.05,WeatherDisplay:10.37,2013-02-20 02:24:00,
2013-02-19 18:29:00,45.2,39.7,29.70,ESE,103,0.1,1.2,81,0.00,CLR,,0.05,WeatherDisplay:10.37,2013-02-20 02:29:00,
2013-02-19 18:34:00,45.2,40.0,29.70,South,177,0.0,0.0,82,0.00,CLR,,0.05,WeatherDisplay:10.37,2013-02-20 02:34:00,
2013-02-19 18:39:00,45.2,40.0,29.70,SW,221,0.6,6.0,82,0.00,CLR,,0.05,WeatherDisplay:10.37,2013-02-20 02:39:00,
2013-02-19 18:44:00,45.2,39.7,29.70,South,179,0.1,1.2,81,0.00,CLR,,0.05,WeatherDisplay:10.37,2013-02-20 02:44:00,
2013-02-19 18:49:00,45.1,39.6,29.70,SSW,205,0.0,1.2,81,0.00,CLR,,0.05,WeatherDisplay:10.37,2013-02-20 02:49:00,
2013-02-19 18:54:00,45.1,39.6,29.70,SSW,201,0.0,3.5,81,0.00,CLR,,0.05,WeatherDisplay:10.37,2013-02-20 02:54:00,
2013-02-19 18:59:00,45.1,39.6,29.71,SSW,206,4.4,7.0,81,0.00,CLR,,0.05,WeatherDisplay:10.37,2013-02-20 02:59:00,
2013-02-19 19:04:00,45.1,39.6,29.70,SW,236,0.0,1.2,81,0.00,CLR,,0.05,WeatherDisplay:10.37,2013-02-20 03:04:00,
2013-02-19 19:09:00,45.1,39.6,29.70,SW,233,0.0,0.0,81,0.00,CLR,,0.05,WeatherDisplay:10.37,2013-02-20 03:09:00,
2013-02-19 19:14:00,44.9,39.4,29.70,SW,220,0.0,2.3,81,0.01,RA,,0.06,WeatherDisplay:10.37,2013-02-20 03:14:00,
2013-02-19 19:19:00,44.9,39.7,29.70,SW,217,1.3,6.9,82,0.02,RA,,0.07,WeatherDisplay:10.37,2013-02-20 03:19:00,
2013-02-19 19:24:00,44.8,39.6,29.70,SW,231,1.9,5.0,82,0.02,RA,,0.08,WeatherDisplay:10.37,2013-02-20 03:24:00,
2013-02-19 19:29:00,44.6,39.8,29.70,SW,214,0.3,3.5,83,0.03,RA,,0.08,WeatherDisplay:10.37,2013-02-20 03:29:00,
2013-02-19 19:34:00,44.5,39.7,29.70,SSW,197,0.7,4.0,83,0.03,,,0.08,WeatherDisplay:10.37,2013-02-20 03:34:00,
2013-02-19 19:39:00,44.3,39.5,29.70,South,189,3.2,11.0,83,0.03,CLR,,0.08,WeatherDisplay:10.37,2013-02-20 03:39:00,
2013-02-19 19:44:00,44.3,39.8,29.70,SW,217,3.0,7.0,84,0.03,CLR,,0.08,WeatherDisplay:10.37,2013-02-20 03:44:00,
2013-02-19 19:49:00,44.2,39.7,29.70,SW,219,4.9,12.0,84,0.03,CLR,,0.08,WeatherDisplay:10.37,2013-02-20 03:49:00,
2013-02-19 19:54:00,44.1,39.3,29.70,SSW,210,2.5,5.8,83,0.03,CLR,,0.08,WeatherDisplay:10.37,2013-02-20 03:54:00,
2013-02-19 19:59:00,43.9,38.8,29.70,SSW,208,6.2,11.5,82,0.03,CLR,,0.08,WeatherDisplay:10.37,2013-02-20 03:59:00,
2013-02-19 20:04:00,43.6,38.2,29.71,SSW,211,4.6,10.4,81,0.03,CLR,,0.08,WeatherDisplay:10.37,2013-02-20 04:04:00,
2013-02-19 20:09:00,43.5,38.4,29.71,WSW,241,3.5,7.0,82,0.04,RA,,0.09,WeatherDisplay:10.37,2013-02-20 04:09:00,
2013-02-19 20:14:00,43.3,38.2,29.72,SW,216,4.0,7.0,82,0.03,RA,,0.09,WeatherDisplay:10.37,2013-02-20 04:14:00,
2013-02-19 20:19:00,43.3,38.2,29.71,SW,218,2.3,5.0,82,0.02,,,0.09,WeatherDisplay:10.37,2013-02-20 04:19:00,
2013-02-19 20:24:00,43.2,38.1,29.71,SSW,207,1.9,6.0,82,0.01,CLR,,0.09,WeatherDisplay:10.37,2013-02-20 04:24:00,
2013-02-19 20:29:00,43.2,38.4,29.70,SSW,208,0.0,3.5,83,0.01,CLR,,0.09,WeatherDisplay:10.37,2013-02-20 04:29:00,
2013-02-19 20:34:00,43.2,38.4,29.70,SSW,208,0.0,3.5,83,0.01,CLR,,0.09,WeatherDisplay:10.37,2013-02-20 04:34:00,
2013-02-19 20:39:00,43.1,38.3,29.70,South,189,1.3,3.5,83,0.01,CLR,,0.09,WeatherDisplay:10.37,2013-02-20 04:39:00,
2013-02-19 20:44:00,43.1,38.3,29.70,SW,216,0.5,4.6,83,0.01,CLR,,0.09,WeatherDisplay:10.37,2013-02-20 04:44:00,
2013-02-19 20:49:00,43.1,38.3,29.70,SW,216,0.2,2.0,83,0.01,CLR,,0.09,WeatherDisplay:10.37,2013-02-20 04:49:00,
2013-02-19 20:54:00,43.1,38.0,29.70,SW,235,0.5,3.5,82,0.01,CLR,,0.09,WeatherDisplay:10.37,2013-02-20 04:54:00,
2013-02-19 20:59:00,43.1,38.0,29.70,SW,235,0.0,2.3,82,0.01,CLR,,0.09,WeatherDisplay:10.37,2013-02-20 04:59:00,
2013-02-19 21:00:00,43.1,38.0,29.70,SW,235,0.0,2.3,82,0.01,CLR,,0.09,WeatherDisplay:10.37,2013-02-20 05:00:00,
2013-02-19 21:01:00,43.1,38.0,29.70,SW,222,1.3,4.0,82,0.01,CLR,,0.09,WeatherDisplay:10.37,2013-02-20 05:01:00,
2013-02-19 21:06:00,43.2,38.1,29.70,SW,223,0.1,1.2,82,0.01,CLR,,0.09,WeatherDisplay:10.37,2013-02-20 05:06:00,
2013-02-19 21:11:00,43.2,38.1,29.69,SW,223,0.0,1.2,82,0.00,CLR,,0.09,WeatherDisplay:10.37,2013-02-20 05:11:00,
2013-02-19 21:16:00,43.3,37.9,29.69,SW,219,0.7,2.3,81,0.00,CLR,,0.09,WeatherDisplay:10.37,2013-02-20 05:16:00,
2013-02-19 21:21:00,43.5,38.1,29.69,SSW,194,0.6,3.5,81,0.00,CLR,,0.09,WeatherDisplay:10.37,2013-02-20 05:21:00,
2013-02-19 21:26:00,43.5,38.1,29.68,SSW,194,0.0,0.0,81,0.00,CLR,,0.09,WeatherDisplay:10.37,2013-02-20 05:26:00,
2013-02-19 21:31:00,43.5,38.1,29.68,SSW,193,1.4,3.5,81,0.00,CLR,,0.09,WeatherDisplay:10.37,2013-02-20 05:31:00,
2013-02-19 21:37:00,43.5,38.1,29.68,SSW,193,0.0,0.0,81,0.00,CLR,,0.09,WeatherDisplay:10.37,2013-02-20 05:37:00,
2013-02-19 21:42:00,43.5,37.7,29.68,SSW,193,0.4,2.3,80,0.00,CLR,,0.09,WeatherDisplay:10.37,2013-02-20 05:42:00,
2013-02-19 21:47:00,43.5,38.1,29.68,SSW,193,0.0,0.0,81,0.01,RA,,0.10,WeatherDisplay:10.37,2013-02-20 05:47:00,
2013-02-19 21:52:00,43.5,38.1,29.67,SSW,193,0.0,0.0,81,0.02,RA,,0.11,WeatherDisplay:10.37,2013-02-20 05:52:00,
2013-02-19 21:57:00,43.3,38.2,29.67,SSW,195,1.8,4.0,82,0.03,RA,,0.12,WeatherDisplay:10.37,2013-02-20 05:57:00,
2013-02-19 22:02:00,43.3,38.2,29.67,SSW,195,0.4,2.3,82,0.04,RA,,0.13,WeatherDisplay:10.37,2013-02-20 06:02:00,
2013-02-19 22:07:00,43.2,38.1,29.67,SSW,200,0.7,3.5,82,0.05,RA,,0.14,WeatherDisplay:10.37,2013-02-20 06:07:00,
2013-02-19 22:12:00,42.8,37.7,29.66,SSW,205,0.0,0.0,82,0.05,RA,,0.14,WeatherDisplay:10.37,2013-02-20 06:12:00,
2013-02-19 22:17:00,42.6,37.5,29.66,SSW,213,0.3,2.0,82,0.05,,,0.14,WeatherDisplay:10.37,2013-02-20 06:17:00,
2013-02-19 22:22:00,42.5,37.4,29.65,SSW,213,0.0,0.0,82,0.05,CLR,,0.14,WeatherDisplay:10.37,2013-02-20 06:22:00,
2013-02-19 22:27:00,42.5,37.4,29.65,SSW,213,0.0,0.0,82,0.05,CLR,,0.14,WeatherDisplay:10.37,2013-02-20 06:27:00,
2013-02-19 22:32:00,42.3,37.2,29.65,SSW,213,0.0,0.0,82,0.05,CLR,,0.14,WeatherDisplay:10.37,2013-02-20 06:32:00,
2013-02-19 22:37:00,42.3,37.2,29.64,SSW,213,0.0,0.0,82,0.05,CLR,,0.14,WeatherDisplay:10.37,2013-02-20 06:37:00,
2013-02-19 22:42:00,42.3,37.5,29.64,SSW,213,0.0,0.0,83,0.05,CLR,,0.14,WeatherDisplay:10.37,2013-02-20 06:42:00,
2013-02-19 22:47:00,42.3,37.5,29.63,SSW,213,0.0,0.0,83,0.04,CLR,,0.14,WeatherDisplay:10.37,2013-02-20 06:47:00,
2013-02-19 22:52:00,42.3,37.5,29.63,SSW,213,0.0,0.0,83,0.03,CLR,,0.14,WeatherDisplay:10.37,2013-02-20 06:52:00,
2013-02-19 22:57:00,42.3,37.5,29.63,SSW,213,0.0,0.0,83,0.02,CLR,,0.14,WeatherDisplay:10.37,2013-02-20 06:57:00,
2013-02-19 23:02:00,42.3,37.8,29.63,SSW,213,0.0,0.0,84,0.01,CLR,,0.14,WeatherDisplay:10.37,2013-02-20 07:02:00,
2013-02-19 23:07:00,42.2,37.7,29.63,SSW,193,0.0,0.0,84,0.01,RA,,0.15,WeatherDisplay:10.37,2013-02-20 07:07:00,
2013-02-19 23:12:00,42.2,37.7,29.63,SSW,193,0.1,1.0,84,0.02,RA,,0.16,WeatherDisplay:10.37,2013-02-20 07:12:00,
2013-02-19 23:17:00,42.2,37.7,29.62,SSW,193,0.0,0.0,84,0.04,RA,,0.18,WeatherDisplay:10.37,2013-02-20 07:17:00,
2013-02-19 23:22:00,42.2,38.0,29.62,SSW,193,0.2,1.2,85,0.06,RA,,0.20,WeatherDisplay:10.37,2013-02-20 07:22:00,
2013-02-19 23:27:00,42.3,38.1,29.62,SSW,193,0.0,0.0,85,0.08,RA,,0.22,WeatherDisplay:10.37,2013-02-20 07:27:00,
2013-02-19 23:32:00,42.5,38.3,29.63,SSW,208,0.9,3.5,85,0.10,RA,,0.24,WeatherDisplay:10.37,2013-02-20 07:32:00,
2013-02-19 23:37:00,42.2,38.0,29.63,SSW,207,4.8,11.5,85,0.12,RA,,0.26,WeatherDisplay:10.37,2013-02-20 07:37:00,
2013-02-19 23:42:00,41.8,37.6,29.64,West,261,2.8,9.2,85,0.13,RA,,0.27,WeatherDisplay:10.37,2013-02-20 07:42:00,
2013-02-19 23:47:00,41.2,36.7,29.64,SW,233,4.1,11.5,84,0.15,RA,,0.30,WeatherDisplay:10.37,2013-02-20 07:47:00,
2013-02-19 23:52:00,40.8,36.3,29.63,SW,217,2.2,11.5,84,0.18,RA,,0.32,WeatherDisplay:10.37,2013-02-20 07:52:00,
2013-02-19 23:57:00,40.5,36.0,29.62,SW,215,2.0,7.0,84,0.19,RA,,0.33,WeatherDisplay:10.37,2013-02-20 07:57:00,